CRYOCUBE (45260 NORAD) Tracking and Keplerian Element Data

This shows tracking and keplerian element data for the satellite.

Feedback or suggestion? Click here.




ElementValue
Catalog45260
NameCRYOCUBE
Epoch Orbit677
Epoch Day93.77641127
Epoch Year2020
RAAN1.2736
Inclination51.6432
Eccentricity0.0009267
Argument of Perigee80.7782
Mean Anonmoly279.4255
Mean Motion15.50511631
Decay Rate7.364E-05
L11 45260U 98067RD 20093.77641127 .00007364 00000-0 13437-3 0 9997
L22 45260 51.6432 1.2736 0009267 80.7782 279.4255 15.50511631 6777

Live tracking and technical data element details for CRYOCUBE (NORAD 45260). CRYOCUBE can be tracked NOW for your location showing map with azimuth and elevation plus other details from your city location.

Track the satellite on the map from your city or location and see movement details for azimuth, elevation, latitude, longitude, range, height, and movement on the map or in text.







IsCatalogInMostPopularTable: catalog: 45260, numindb: 16
Update: records affected: 1



GetName: 45260 CRYOCUBE

Hit Count: updated at: Mon, 06 Apr 2020 11:10:46 GMT